SBI2493 UWKJ-UWKD

Flight info

Callsign SBI2493
Flight time N/A
Altitude 5000
Route K0643F170 AGBUN1B AGBUN DCT KOROM KOROM1R
Aircraft B738/M-SDE2E3FGHIRWXY/LB1

Departure

Time 2026-04-26 03:28
Airport Yoshkar-Ola Airport (UWKJ)

Arrival

Time N/A
Airport Kazan International Airport (UWKD)
Time Latitude Longitude Altitude Speed Heading
2026-04-26 03:27 56.83944 47.71808 4999 ft 263 kts 210°
2026-04-26 03:28 56.82225 47.70656 4999 ft 261 kts 188°
2026-04-26 03:28 56.80392 47.70791 4999 ft 259 kts 165°
2026-04-26 03:28 56.78679 47.71929 5013 ft 259 kts 158°
2026-04-26 03:28 56.76984 47.73145 4999 ft 259 kts 158°
2026-04-26 03:29 56.75309 47.74352 4998 ft 258 kts 158°
2026-04-26 03:29 56.73531 47.75238 4981 ft 259 kts 175°
2026-04-26 03:29 56.71712 47.75020 5013 ft 261 kts 186°
2026-04-26 03:29 56.69867 47.74553 4999 ft 261 kts 187°
2026-04-26 03:30 56.68048 47.74064 4998 ft 261 kts 187°
2026-04-26 03:30 56.66242 47.73576 4997 ft 261 kts 187°
2026-04-26 03:30 56.64409 47.72708 4798 ft 256 kts 210°
2026-04-26 03:30 56.62996 47.70478 5314 ft 277 kts 225°
2026-04-26 03:31 56.61764 47.67668 5669 ft 282 kts 236°
2026-04-26 03:31 56.60841 47.64517 6018 ft 282 kts 247°
2026-04-26 03:31 56.60245 47.61083 6367 ft 284 kts 257°
2026-04-26 03:31 56.60000 47.57419 6724 ft 285 kts 269°
2026-04-26 03:32 56.60126 47.53785 7076 ft 287 kts 279°
2026-04-26 03:32 56.60618 47.50209 7434 ft 288 kts 290°
2026-04-26 03:32 56.61465 47.46829 7795 ft 289 kts 301°
2026-04-26 03:32 56.62627 47.43800 8156 ft 289 kts 311°
2026-04-26 03:33 56.64094 47.41160 8524 ft 290 kts 322°
2026-04-26 03:33 56.65758 47.39093 8886 ft 290 kts 332°
2026-04-26 03:33 56.67629 47.37576 9255 ft 290 kts 342°
2026-04-26 03:33 56.69606 47.36700 9625 ft 290 kts 353°
2026-04-26 03:34 56.71631 47.36481 9974 ft 292 kts
2026-04-26 03:34 56.73718 47.36896 9871 ft 293 kts 13°
2026-04-26 03:34 56.75680 47.37967 9884 ft 290 kts 22°
2026-04-26 03:34 56.77475 47.39632 9886 ft 289 kts 33°
2026-04-26 03:35 56.79095 47.41887 9885 ft 289 kts 43°
2026-04-26 03:35 56.80474 47.44662 9885 ft 289 kts 53°
2026-04-26 03:35 56.81548 47.47831 9885 ft 289 kts 64°
2026-04-26 03:35 56.82288 47.51291 9885 ft 289 kts 74°
2026-04-26 03:36 56.82733 47.54910 10023 ft 283 kts 77°
2026-04-26 03:36 56.83322 47.58432 10518 ft 293 kts 69°
2026-04-26 03:36 56.84112 47.62030 10362 ft 294 kts 72°
2026-04-26 03:36 56.84281 47.65787 10315 ft 293 kts 98°
2026-04-26 03:37 56.83520 47.69260 10310 ft 292 kts 124°
2026-04-26 03:37 56.82026 47.71864 10346 ft 297 kts 147°
2026-04-26 03:37 56.80042 47.73302 10037 ft 304 kts 168°
2026-04-26 03:37 56.77920 47.73261 9632 ft 302 kts 191°
2026-04-26 03:38 56.75892 47.72315 9254 ft 297 kts 185°
2026-04-26 03:38 56.73818 47.72614 8882 ft 291 kts 164°
2026-04-26 03:38 56.71848 47.73615 8519 ft 288 kts 163°
2026-04-26 03:38 56.69906 47.74585 8131 ft 286 kts 167°
2026-04-26 03:39 56.67880 47.74742 7716 ft 286 kts 186°
2026-04-26 03:39 56.65924 47.73751 7336 ft 285 kts 197°
2026-04-26 03:39 56.63997 47.72721 6959 ft 282 kts 194°
2026-04-26 03:39 56.62107 47.71807 6779 ft 277 kts 193°
2026-04-26 03:40 56.60194 47.70905 6401 ft 281 kts 193°
2026-04-26 03:40 56.58270 47.70000 6019 ft 280 kts 193°
2026-04-26 03:40 56.56387 47.69115 5642 ft 278 kts 193°
2026-04-26 03:40 56.54502 47.68231 5266 ft 276 kts 193°
2026-04-26 03:41 56.52624 47.67350 4998 ft 270 kts 193°
2026-04-26 03:41 56.50789 47.66490 4847 ft 268 kts 193°
2026-04-26 03:41 56.48978 47.65642 4776 ft 258 kts 193°
2026-04-26 03:41 56.47221 47.64821 4778 ft 257 kts 193°
2026-04-26 03:42 56.45457 47.63999 4779 ft 260 kts 193°
2026-04-26 03:42 56.43658 47.63160 4777 ft 260 kts 193°
2026-04-26 03:42 56.41856 47.62320 4776 ft 260 kts 193°
2026-04-26 03:42 56.40054 47.61486 4789 ft 268 kts 193°
2026-04-26 03:43 56.38217 47.60651 4778 ft 272 kts 193°
2026-04-26 03:43 56.36327 47.59789 4776 ft 271 kts 193°
2026-04-26 03:43 56.34450 47.58933 4776 ft 271 kts 193°
2026-04-26 03:43 56.32587 47.58083 4776 ft 270 kts 193°
2026-04-26 03:44 56.30757 47.57250 4776 ft 271 kts 193°
2026-04-26 03:44 56.28891 47.56400 4776 ft 271 kts 193°
2026-04-26 03:44 56.27035 47.55555 4776 ft 271 kts 193°
2026-04-26 03:44 56.25163 47.54704 4776 ft 271 kts 193°
2026-04-26 03:45 56.23310 47.53862 4776 ft 271 kts 193°
2026-04-26 03:45 56.21457 47.53019 4776 ft 271 kts 193°
2026-04-26 03:45 56.19617 47.52184 4776 ft 271 kts 193°
2026-04-26 03:45 56.17761 47.51341 4776 ft 271 kts 193°
2026-04-26 03:46 56.15904 47.50499 4776 ft 271 kts 193°
2026-04-26 03:46 56.14040 47.49653 4776 ft 271 kts 193°
2026-04-26 03:46 56.12182 47.48811 4776 ft 271 kts 193°
2026-04-26 03:47 56.08485 47.47136 4776 ft 271 kts 193°
2026-04-26 03:47 56.06624 47.46293 4776 ft 271 kts 193°
2026-04-26 03:47 56.04752 47.45447 4776 ft 271 kts 193°
2026-04-26 03:47 56.02912 47.44614 4776 ft 271 kts 193°
2026-04-26 03:48 56.01062 47.43778 4776 ft 271 kts 193°
2026-04-26 03:48 55.99188 47.42931 4776 ft 271 kts 193°
2026-04-26 03:48 55.97313 47.42084 4776 ft 271 kts 193°
2026-04-26 03:48 55.95488 47.41260 4776 ft 271 kts 193°
2026-04-26 03:49 55.93829 47.40512 4776 ft 271 kts 193°
2026-04-26 03:49 55.91975 47.39676 4776 ft 271 kts 193°
2026-04-26 03:49 55.90102 47.38831 4776 ft 271 kts 193°
2026-04-26 03:49 55.88929 47.38303 4777 ft 271 kts 193°
2026-04-26 03:50 55.84047 47.36106 4777 ft 271 kts 193°
2026-04-26 03:51 55.82979 47.35625 4777 ft 271 kts 193°